Location: Vigo di Fassa
(46.4167°N, 11.6667°E)
Time: 14:52:27
(UTC+00:00)

Cosmos 1727 Rocket - Pass Details

Date: 03 March 2021
Orbit: 961 x 996 km, 82.9° (Epoch: 17 April)

Event Time Altitude Azimuth Distance (km) Brightness Sun altitude
Rises 18:42:12 0° 356° (N) 3,659 7.2 -17.9°
Reaches altitude 10° 18:44:51 10° 3° (N) 2,709 6.4 -18.4°
Maximum altitude 18:50:44 44° 74° (ENE) 1,312 4.3 -19.4°
Enters shadow 18:52:55 32° 120° (ESE) 1,581 4.6 -19.8°
